ICEYE-X16

导读 | 星芒AI

ICEYE-X16 是 ICEYE 公司研发的一颗合成孔径雷达(SAR)成像卫星,具备高分辨率和全天候、全天时成像能力。该卫星采用小型卫星平台,搭载先进的 SAR 传感器,能够提供 0.5 米分辨率的雷达图像,广泛应用于灾害监测、海事监控、农业评估等领域。作为 ICEYE 任务组的一部分,ICEYE-X16 提升了全球对地观测的覆盖频率和数据获取能力,支持政府和商业用户进行实时决策和响应。

基本信息
目录编号:
51008
目录名称:
ICEYE-X16
国际标识:
2022-002AA
轨道中心:
EARTH
卫星名称:
ICEYE-X16
卫星全名:
--
卫星状态:
已陨落 最后检测时间 2024-09-16
发射日期:
2022-01-13 UTC
国别 :
(FI)
星等 :
--
轨道信息
数据来源 国际轨道数据
星历时间: 2024-09-16T22:08:34+0800
轨道信息已过期407天
半长轴: 6529.803km
偏心率: 0.0011843
轨道倾角: 97.346°
近地点辐角 267.605°
升交点赤经 339.246°
平近点角 92.389°
近地点: 143.934km
远地点: 159.402km
周期: 87.521分钟
每日圈数: 16.453286
详细信息
使用方式:
暂无